Regional Weather Roundup
Issued by NWS

Home | Current Version | Previous Version | Graphics & Text | Print | Product List | Glossary On
Versions: 1 2 3 4 5 6 7 8 9 10 11 12 13 14 15 16 17 18 19 20 21 22 23 24 25 26 27 28 29 30 31 32 33 34 35 36 37 38 39 40 41 42 43 44 45 46 47 48 49 50
000
ASUS45 KCYS 240010
RWRWY

WYOMING REGIONAL WEATHER ROUNDUP
NATIONAL WEATHER SERVICE CHEYENNE WY
600 PM MDT MON MAY 23 2016

NOTE:  "FAIR" INDICATES FEW OR NO CLOUDS BELOW 12,000 FEET
WITH NO SIGNIFICANT WEATHER AND/OR OBSTRUCTIONS TO VISIBILITY.

WYZ001-240100-
YELLOWSTONE NATIONAL PARK

CITY           SKY/WX    TMP DP  RH WIND       PRES   REMARKS
LK YELLOWSTONE   N/A     42  26  53 W8        29.94F
6HR MIN TEMP:  33; 6HR MAX TEMP:  43; 6HR PCP:  0.01;

W YELLOWSTONE  NOT AVBL

$$
WYZ002>013-054>058-071-098>099-240100-
NORTHERN WYOMING

CITY           SKY/WX    TMP DP  RH WIND       PRES   REMARKS
JACKSON        MOSUNNY   54  23  30 SW18      29.90S
CODY           FAIR      55  27  33 W9G23     29.81R
GREYBULL       FAIR      64  23  21 W5        29.77F
6HR MIN TEMP:  63; 6HR MAX TEMP:  68;

WORLAND        PTSUNNY   66  19  16 W5        29.76S
6HR MIN TEMP:  63; 6HR MAX TEMP:  69;

SHERIDAN       PTSUNNY   62  33  33 N10       29.77R
6HR MIN TEMP:  62; 6HR MAX TEMP:  70;

BUFFALO        FAIR      61  27  27 N10       29.79S
6HR MIN TEMP:  59; 6HR MAX TEMP:  67;

GILLETTE       FAIR      66  28  24 NW12      29.75S
6HR MIN TEMP:  63; 6HR MAX TEMP:  70;

HULETT         CLOUDY    64  28  25 W7        29.76R
NEWCASTLE      FAIR      66  21  18 SW14G22   29.78R

$$
WYZ014>020-022>026-101>103-240100-
CENTRAL WYOMING

CITY           SKY/WX    TMP DP  RH WIND       PRES   REMARKS
BIG PINEY      FAIR      56  26  31 NW14G20   29.94R
6HR MIN TEMP:  48; 6HR MAX TEMP:  56;

PINEDALE       FAIR      52  27  37 W10G18    29.94F
DUBOIS         CLOUDY    48  23  37 W24G31    29.88S
LANDER         FAIR      63  21  20 NW13G20   29.81F
6HR MIN TEMP:  56; 6HR MAX TEMP:  63;

RIVERTON       FAIR      63  21  20 W15G25    29.83S
6HR MIN TEMP:  58; 6HR MAX TEMP:  64;

CASPER         FAIR      60  23  24 W22G30    29.84R
6HR MIN TEMP:  56; 6HR MAX TEMP:  66; 6HR PCP: TRACE;

DOUGLAS        FAIR      66  25  21 W21G33    29.81F
6HR MIN TEMP:  63; 6HR MAX TEMP:  69;


$$
WYZ021-027>030-104>119-240100-
SOUTHERN WYOMING

CITY           SKY/WX    TMP DP  RH WIND       PRES   REMARKS
EVANSTON       CLOUDY    51  29  42 S7        29.94S
6HR MIN TEMP:  46; 6HR MAX TEMP:  56;

KEMMERER         N/A     54  23  30 W14G22    29.95S
FORT BRIDGER   PTCLDY    52  37  58 S7        29.97F
ROCK SPRINGS   CLOUDY    53  26  35 W9        29.94F
6HR MIN TEMP:  46; 6HR MAX TEMP:  58; 6HR PCP: TRACE;

DIXON          CLOUDY    60  25  26 SW13G24   29.94S
RAWLINS        FAIR      55  29  36 NW18G32   29.93S
6HR MIN TEMP:  53; 6HR MAX TEMP:  61;

SARATOGA       FAIR      59  27  29 NW12G22   29.93S
LARAMIE        CLOUDY    56  21  25 VRB3      29.91S
6HR MIN TEMP:  55; 6HR MAX TEMP:  61;

CHEYENNE       FAIR      58  40  51 S18       29.90F
6HR MIN TEMP:  54; 6HR MAX TEMP:  64; 6HR PCP: TRACE;

TORRINGTON     CLOUDY    61  37  41 S29G37    29.81R
6HR MIN TEMP:  61; 6HR MAX TEMP:  73;

PINE BLUFFS    FAIR      61  41  48 S8        29.89F

$$



USA.gov is the U.S. government's official web portal to all federal, state and local government web resources and services.